TimeEDT,TemperatureF,Dew PointF,Humidity,Sea Level PressureIn,VisibilityMPH,Wind Direction,Wind SpeedMPH,Gust SpeedMPH,PrecipitationIn,Events,Conditions,WindDirDegrees,DateUTC
12:53 AM,80.1,71.1,74,30.00,10.0,SE,15.0,-,0.00,,Scattered Clouds,130,2013-11-01 04:53:00
1:53 AM,79.0,71.1,77,29.99,10.0,SE,13.8,-,N/A,,Scattered Clouds,130,2013-11-01 05:53:00
2:53 AM,79.0,70.0,74,29.98,10.0,SE,11.5,-,N/A,,Scattered Clouds,140,2013-11-01 06:53:00
3:53 AM,79.0,71.1,77,29.96,10.0,SE,10.4,-,N/A,,Scattered Clouds,140,2013-11-01 07:53:00
4:53 AM,79.0,70.0,74,29.96,10.0,SSE,9.2,-,N/A,,Partly Cloudy,150,2013-11-01 08:53:00
5:53 AM,78.1,70.0,76,29.97,10.0,SSE,8.1,-,N/A,,Partly Cloudy,150,2013-11-01 09:53:00
6:53 AM,78.1,71.1,79,29.98,10.0,SE,10.4,-,N/A,,Scattered Clouds,140,2013-11-01 10:53:00
7:53 AM,79.0,71.1,77,29.99,10.0,SSE,6.9,-,N/A,,Partly Cloudy,150,2013-11-01 11:53:00
7:55 AM,78.8,71.6,78,29.99,1.8,SSE,5.8,-,N/A,,Haze,160,2013-11-01 11:55:00
8:00 AM,78.8,71.6,78,30.00,10.0,SSE,5.8,-,N/A,,Partly Cloudy,150,2013-11-01 12:00:00
8:53 AM,81.0,71.1,72,30.01,10.0,SSE,6.9,-,N/A,,Partly Cloudy,150,2013-11-01 12:53:00
9:53 AM,81.0,72.0,74,30.01,10.0,SSE,4.6,-,N/A,,Scattered Clouds,150,2013-11-01 13:53:00
10:53 AM,82.9,71.1,67,30.00,10.0,SE,11.5,19.6,N/A,,Mostly Cloudy,130,2013-11-01 14:53:00
11:53 AM,84.0,72.0,67,29.99,10.0,SE,13.8,19.6,N/A,,Scattered Clouds,140,2013-11-01 15:53:00
12:53 PM,84.9,71.1,63,29.96,10.0,SE,13.8,-,N/A,,Partly Cloudy,140,2013-11-01 16:53:00
1:53 PM,84.9,72.0,65,29.94,10.0,SE,15.0,-,N/A,,Scattered Clouds,130,2013-11-01 17:53:00
2:53 PM,82.9,72.0,69,29.91,10.0,SE,12.7,-,N/A,,Mostly Cloudy,130,2013-11-01 18:53:00
3:53 PM,84.9,73.0,67,29.90,10.0,SE,12.7,-,N/A,,Scattered Clouds,140,2013-11-01 19:53:00
4:53 PM,84.0,72.0,67,29.89,10.0,SE,13.8,-,N/A,,Partly Cloudy,130,2013-11-01 20:53:00
5:53 PM,82.0,71.1,69,29.90,10.0,SSE,10.4,-,N/A,,Partly Cloudy,150,2013-11-01 21:53:00
6:53 PM,81.0,71.1,72,29.91,10.0,SSE,8.1,-,N/A,,Partly Cloudy,160,2013-11-01 22:53:00
7:53 PM,80.1,70.0,71,29.93,10.0,SSE,6.9,-,N/A,,Partly Cloudy,150,2013-11-01 23:53:00
8:53 PM,79.0,71.1,77,29.94,10.0,SSE,5.8,-,N/A,,Clear,160,2013-11-02 00:53:00
9:53 PM,79.0,71.1,77,29.95,10.0,South,4.6,-,N/A,,Clear,180,2013-11-02 01:53:00
10:53 PM,78.1,71.1,79,29.95,10.0,SSW,4.6,-,N/A,,Clear,200,2013-11-02 02:53:00
11:53 PM,78.1,72.0,81,29.95,10.0,SSW,3.5,-,N/A,,Clear,200,2013-11-02 03:53:00